• Join FlightAware (Why Join?)
  • Login
  • US Flag 
05:54PM EST


 

Airport Tracker/Info


-or-


 

Live Flight TrackerFlight Track Log ✈ N220JL ✈ 24-May-2013 ✈ KPTK - KBUU

Flight Track Log - Related Links

Times and Time Zones

All times are in EDT time to prevent confusion due to time zone crossing. See the N220JL flight status page for this flight to view local times or setup timezone preferences in your user account.

Time Position Orientation Groundspeed Altitude Reporting Facility
EDT Latitude Longitude Course Direction KTS MPH feet Rate Location/Type
03:38PM 42.6650 -83.7330 265° West 214 246 12,300  Level FlightAware
03:39PM 42.6620 -83.7960 266° West 211 243 13,500 2,583 Climbing FlightAware
03:40PM 42.6720 -83.8260 294° West 206 237 15,400 1,541 Climbing FlightAware
03:40PM 42.6810 -83.8840 282° West 206 237 15,400 438 Level FlightAware
03:41PM 42.6780 -83.9880 268° West 305 351 16,100 483 Climbing FlightAware
03:42PM 42.6790 -84.0770 271° West 314 361 16,100  Level FlightAware
03:43PM 42.6810 -84.1590 272° West 308 354 16,100  Level FlightAware
03:43PM 42.6820 -84.2310 271° West 308 354 16,100  Level FlightAware
03:44PM 42.6840 -84.3180 272° West 314 361 16,100  Level FlightAware
03:45PM 42.6860 -84.4050 272° West 315 362 16,100  Level FlightAware
03:45PM 42.6860 -84.4280 270° West 313 360 16,100  Level FlightAware
03:46PM 42.6890 -84.5770 272° West 307 353 16,100  Level FlightAware
03:47PM 42.6910 -84.6840 271° West 307 353 16,100  Level FlightAware
03:48PM 42.6920 -84.7600 271° West 306 352 16,100  Level FlightAware
03:49PM 42.6930 -84.8480 271° West 306 352 16,100  Level FlightAware
03:49PM 42.6940 -84.9240 271° West 306 352 16,100  Level FlightAware
03:50PM 42.6950 -85.0040 271° West 306 352 16,100  Level FlightAware
03:51PM 42.6960 -85.0310 273° West 306 352 16,100  Level FlightAware
03:52PM 42.6980 -85.1980 271° West 306 352 16,100  Level FlightAware
03:52PM 42.6990 -85.2780 271° West 307 353 16,100  Level FlightAware
03:53PM 42.6990 -85.3490 270° West 307 353 16,100  Level FlightAware
03:54PM 42.7000 -85.4340 271° West 307 353 16,100  Level FlightAware
03:54PM 42.7010 -85.5140 271° West 307 353 16,100  Level FlightAware
03:55PM 42.7010 -85.6080 270° West 307 353 16,100  Level FlightAware
03:56PM 42.7030 -85.7530 271° West 306 352 16,100  Level FlightAware
03:57PM 42.7030 -85.8330 270° West 306 352 16,100  Level FlightAware
03:58PM 42.7030 -85.9130 270° West 306 352 16,100  Level FlightAware
03:58PM 42.7040 -85.9880 271° West 305 351 16,100  Level FlightAware
03:59PM 42.7040 -86.0710 270° West 304 350 16,100  Level FlightAware
04:00PM 42.7040 -86.1990 270° West 302 348 16,100  Level FlightAware
04:01PM 42.7050 -86.2870 271° West 302 348 16,100  Level FlightAware
04:02PM 42.7050 -86.3680 270° West 305 351 16,100  Level FlightAware
04:02PM 42.7050 -86.4360 270° West 306 352 16,100  Level FlightAware
04:03PM 42.7050 -86.5150 270° West 307 353 16,100  Level FlightAware
04:04PM 42.7050 -86.6050 270° West 308 354 16,100  Level FlightAware
04:05PM 42.7050 -86.7200 270° West 308 354 16,100  Level FlightAware
04:06PM 42.7050 -86.8340 270° West 308 354 16,100  Level FlightAware
04:07PM 42.7040 -86.9240 269° West 309 356 16,100  Level FlightAware
04:07PM 42.7040 -87.0100 270° West 310 357 16,100  Level FlightAware
04:08PM 42.7030 -87.0780 269° West 310 357 16,100  Level FlightAware
04:09PM 42.7030 -87.1690 270° West 310 357 16,100  Level FlightAware
04:09PM 42.7030 -87.2550 270° West 310 357 16,100 -247 Level FlightAware
04:10PM 42.7020 -87.3570 269° West 307 353 15,700 -536 Descending FlightAware
04:11PM 42.7010 -87.4690 269° West 306 352 15,100 -600 Descending FlightAware
04:12PM 42.7000 -87.5480 269° West 306 352 14,700 -911 Descending FlightAware
04:13PM 42.6990 -87.6210 269° West 298 343 13,900 -1,373 Descending FlightAware
04:13PM 42.6990 -87.7000 270° West 296 341 12,800 -1,440 Descending FlightAware
04:14PM 42.6950 -87.8040 267° West 293 337 11,500 -1,485 Descending FlightAware
04:15PM 42.6860 -87.8900 262° West 294 338 10,300 -1,562 Descending FlightAware
04:15PM 42.6830 -87.9390 265° West 293 337 9,600 -1,579 Descending FlightAware
04:16PM 42.6820 -87.9600 266° West 292 336 9,300 -1,538 Descending FlightAware
04:16PM 42.6800 -88.0120 267° West 290 334 8,600 -1,552 Descending FlightAware
04:17PM 42.6800 -88.0650 270° West 285 328 7,800 -1,636 Descending FlightAware
04:17PM 42.6820 -88.0900 276° West 282 325 7,400 -2,143 Descending FlightAware
04:17PM 42.6850 -88.1380 275° West 271 312 6,300 -2,640 Descending FlightAware
04:18PM 42.6880 -88.1760 276° West 268 308 5,200 -3,115 Descending FlightAware
04:18PM 42.6910 -88.2270 275° West 272 313 3,600 -2,947 Descending FlightAware
04:19PM 42.6970 -88.2670 282° West 258 297 2,400 -1,500 Descending FlightAware
04:19PM 42.7060 -88.3140 285° West 255 293 2,000 -248 Descending FlightAware
04:21PM 42.6900 -88.3730 250° West 173 199 1,900 181 Descending FlightAware
04:22PM 42.7040 -88.2540 81° East 200 230 2,500 273 Climbing FlightAware
04:22PM 42.7210 -88.2770 315° West 195 224 2,400 -158 Descending FlightAware
04:23PM 42.7230 -88.2890 283° West 190 219 2,400 -327 Level FlightAware
04:23PM 42.7290 -88.3340 280° West 182 209 2,100 -400 Descending FlightAware